Weather History for Danbury, CT

Change the Weather History Date:

Tuesday, July 2, 2013

  Actual Average Record
Temperature  
Mean Temperature 76 °F -  
Max Temperature 82 °F 82 °F 97 °F (1966)
Min Temperature 71 °F 58 °F 44 °F (1982)
Cooling Degree Days 12    
Growing Degree Days 26 (Base 50)    
Moisture  
Dew Point 71 °F    
Average Humidity 79    
Maximum Humidity 94    
Minimum Humidity 66    
Precipitation  
Precipitation 0.03 in - - ()
Sea Level Pressure  
Sea Level Pressure 30.14 in    
Wind  
Wind Speed 8 mph (South)    
Max Wind Speed 13 mph    
Max Gust Speed 20 mph    
Visibility 9 miles    
Events Rain    
Averages and records for this station are not official NWS values.
T = Trace of Precipitation, MM = Missing Value Source: NWS Daily Summary

Daily Weather History Graph

Daily Weather History Graph

Search for Another Location

Airport:

Trip Planner

Search our weather history database for the weather conditions in past years. The results will help you decide how hot, cold, wet, or windy it might be!

Date:

Astronomy

Jul. 02, 2013 Rise Set
Actual Time 5:24 AM EDT 8:30 PM EDT
Civil Twilight 4:51 AM EDT 9:04 PM EDT
Nautical Twilight 4:08 AM EDT 9:47 PM EDT
Astronomical Twilight 3:17 AM EDT 10:38 PM EDT
Moon 1:27 AM EDT (7/2) 3:40 PM EDT (7/2)
Length of Visible Light 16h 13m
Length of Day
15h 06m
Waning Crescent, 26% of the Moon is Illuminated
Jul 2
Waning Crescent
Jul 8
New
Jul 15
First Quarter
Jul 22
Full
Jul 29
Last Quarter

Hourly Weather History & Observations

Time (EDT) Temp. Heat Index Dew Point Humidity Pressure Visibility Wind Dir Wind Speed Gust Speed Precip Events Conditions
6:53 AM 71.6 °F - 69.8 °F 94% 30.13 in 6.0 mi South 5.8 mph - N/A   Overcast
7:53 AM 73.4 °F - 69.8 °F 88% 30.14 in 6.0 mi South 8.1 mph - N/A   Overcast
8:53 AM 73.4 °F - 69.8 °F 88% 30.15 in 7.0 mi South 6.9 mph - N/A   Overcast
9:53 AM 73.4 °F - 69.8 °F 88% 30.15 in 8.0 mi South 5.8 mph - N/A   Overcast
11:53 AM 77.0 °F - 70.0 °F 79% 30.15 in 9.0 mi South 5.8 mph - N/A   Mostly Cloudy
12:53 PM 79.0 °F - 70.0 °F 74% 30.16 in 10.0 mi South 8.1 mph - N/A   Overcast
1:53 PM 80.1 °F 83.6 °F 71.1 °F 74% 30.14 in 10.0 mi South 11.5 mph 19.6 mph N/A   Overcast
2:53 PM 81.0 °F 84.9 °F 71.1 °F 72% 30.13 in 10.0 mi South 10.4 mph - N/A   Mostly Cloudy
3:00 PM 80.6 °F 84.6 °F 71.6 °F 74% 30.14 in 10.0 mi SSW 10.4 mph 16.1 mph N/A   Scattered Clouds
3:07 PM 80.6 °F 83.9 °F 69.8 °F 70% 30.14 in 10.0 mi SSW 11.5 mph 17.3 mph N/A   Mostly Cloudy
3:53 PM 82.0 °F 86.3 °F 71.1 °F 69% 30.12 in 10.0 mi South 11.5 mph - N/A   Mostly Cloudy
4:00 PM 82.4 °F 86.3 °F 69.8 °F 66% 30.13 in 10.0 mi SSW 12.7 mph - N/A   Scattered Clouds
4:23 PM 82.4 °F 87.2 °F 71.6 °F 70% 30.12 in 10.0 mi South 6.9 mph - N/A   Partly Cloudy
4:53 PM 80.1 °F 83.2 °F 70.0 °F 71% 30.11 in 10.0 mi SSW 9.2 mph - N/A   Scattered Clouds
5:53 PM 77.0 °F - 72.0 °F 84% 30.12 in 4.0 mi SSE 6.9 mph - 0.03 in Rain Light Rain
6:53 PM 78.1 °F - 72.0 °F 81% 30.14 in 9.0 mi SSE 4.6 mph - 0.00 in   Mostly Cloudy
7:04 PM 77.0 °F - 71.6 °F 83% 30.15 in 9.0 mi SSE 5.8 mph - N/A   Mostly Cloudy
7:27 PM 77.0 °F - 71.6 °F 83% 30.16 in 9.0 mi South 4.6 mph - N/A   Partly Cloudy
7:53 PM 75.9 °F - 71.1 °F 85% 30.15 in 9.0 mi SSE 6.9 mph - N/A   Clear
8:53 PM 75.0 °F - 70.0 °F 84% 30.16 in 9.0 mi South 8.1 mph - N/A   Clear
9:53 PM 75.0 °F - 70.0 °F 84% 30.18 in 7.0 mi South 8.1 mph - 0.00 in Rain Light Rain
10:53 PM 75.0 °F - 70.0 °F 84% 30.18 in 10.0 mi SSW 9.2 mph - 0.00 in   Scattered Clouds
11:53 PM 75.0 °F - 68.0 °F 79% 30.18 in 10.0 mi SSW 8.1 mph - N/A   Scattered Clouds